Location: Malvern Link
(52.1333°N, 2.3000°W)
Time: 01:26:13
(UTC+00:00)

USA 186 - Pass Details

Date: 18 September 2020
Orbit: 261 x 425 km, 96.9° (Epoch: 12 October)

Event Time Altitude Azimuth Distance (km) Brightness Sun altitude
Exits shadow 20:20:54 - 205° (SSW) 1,662 4.7 -19.1°
Reaches altitude 10° 20:21:29 10° 211° (SSW) 1,451 4.5 -19.2°
Maximum altitude 20:24:04 23° 267° (W) 918 4.1 -19.5°
Drops below altitude 10° 20:26:45 10° 322° (NW) 1,514 5.6 -19.9°
Sets 20:29:05 0° 337° (NNW) 2,401 6.5 -20.2°
